SFR851 FIMP-FAOR

Flight info

Callsign SFR851
Flight time N/A
Altitude 36000
Route SOBAT1 SOBAT UA401 SDG UG653 SUNIR UT444 ETIVI DCT IMKAN UT446 IBGUB
Aircraft B738/M-SDE2E3FGHIRWXY/LB1

Departure

Time 2026-05-04 12:18
Airport Sir Seewoosagur Ramgoolam International Airport (FIMP)

Arrival

Time N/A
Airport O.R. Tambo International Airport (FAOR)
Time Latitude Longitude Altitude Speed Heading
2026-05-04 11:51 -20.43132 57.67766 199 ft 0 kts 207°
2026-05-04 12:03 -20.43132 57.67767 185 ft 0 kts 207°
2026-05-04 12:08 -20.43126 57.67770 185 ft 4 kts 207°
2026-05-04 12:08 -20.43102 57.67783 194 ft 4 kts 207°
2026-05-04 12:09 -20.43082 57.67794 200 ft 4 kts 210°
2026-05-04 12:09 -20.43062 57.67812 188 ft 4 kts 246°
2026-05-04 12:09 -20.43059 57.67838 185 ft 4 kts 284°
2026-05-04 12:09 -20.43067 57.67862 188 ft 1 kts 297°
2026-05-04 12:10 -20.43067 57.67863 198 ft 2 kts 297°
2026-05-04 12:12 -20.43061 57.67849 199 ft 5 kts 297°
2026-05-04 12:12 -20.43034 57.67793 188 ft 10 kts 297°
2026-05-04 12:12 -20.42999 57.67721 189 ft 11 kts 297°
2026-05-04 12:13 -20.42961 57.67656 191 ft 10 kts 319°
2026-05-04 12:14 -20.42752 57.67507 185 ft 2 kts 322°
2026-05-04 12:15 -20.42728 57.67489 189 ft 7 kts 330°
2026-05-04 12:15 -20.42673 57.67470 187 ft 9 kts 343°
2026-05-04 12:15 -20.42611 57.67449 191 ft 9 kts 342°
2026-05-04 12:15 -20.42567 57.67406 195 ft 9 kts 296°
2026-05-04 12:16 -20.42539 57.67348 200 ft 9 kts 297°
2026-05-04 12:16 -20.42512 57.67292 202 ft 8 kts 295°
2026-05-04 12:16 -20.42514 57.67233 196 ft 8 kts 255°
2026-05-04 12:16 -20.42488 57.67207 202 ft 6 kts 16°
2026-05-04 12:17 -20.42489 57.67244 200 ft 5 kts 117°
2026-05-04 12:17 -20.42514 57.67296 203 ft 14 kts 117°
2026-05-04 12:17 -20.42661 57.67601 200 ft 81 kts 117°
2026-05-04 12:17 -20.43017 57.68341 179 ft 141 kts 117°
2026-05-04 12:18 -20.43540 57.69422 326 ft 177 kts 117°
2026-05-04 12:18 -20.44105 57.70596 1039 ft 179 kts 119°
2026-05-04 12:18 -20.44703 57.71780 1733 ft 186 kts 120°
2026-05-04 12:18 -20.45376 57.73003 2237 ft 198 kts 127°
2026-05-04 12:19 -20.46381 57.74070 2545 ft 212 kts 148°
2026-05-04 12:19 -20.47827 57.74563 2803 ft 231 kts 178°
2026-05-04 12:19 -20.49409 57.74261 3345 ft 237 kts 197°
2026-05-04 12:19 -20.50964 57.73561 3871 ft 251 kts 205°
2026-05-04 12:20 -20.52493 57.72648 4651 ft 249 kts 209°
2026-05-04 12:20 -20.53869 57.71548 5449 ft 252 kts 224°
2026-05-04 12:20 -20.54824 57.69948 6025 ft 264 kts 249°
2026-05-04 12:20 -20.55087 57.67955 6478 ft 282 kts 272°
2026-05-04 12:21 -20.54597 57.65896 7036 ft 289 kts 290°
2026-05-04 12:21 -20.53807 57.63949 7886 ft 284 kts 294°
2026-05-04 12:21 -20.52982 57.62008 8482 ft 292 kts 291°
2026-05-04 12:21 -20.52186 57.60008 9168 ft 293 kts 291°
2026-05-04 12:22 -20.51413 57.58022 9903 ft 294 kts 291°
2026-05-04 12:22 -20.50621 57.55996 10459 ft 301 kts 291°
2026-05-04 12:22 -20.49781 57.53863 10605 ft 323 kts 291°
2026-05-04 12:22 -20.48888 57.51582 10757 ft 343 kts 291°
2026-05-04 12:23 -20.47946 57.49180 10897 ft 361 kts 291°
2026-05-04 12:23 -20.47016 57.46650 11202 ft 370 kts 283°
2026-05-04 12:23 -20.46818 57.43934 11675 ft 369 kts 262°
2026-05-04 12:23 -20.47293 57.41249 12263 ft 369 kts 256°
2026-05-04 12:24 -20.47879 57.38573 12767 ft 372 kts 255°
2026-05-04 12:24 -20.48482 57.35922 13293 ft 373 kts 255°
2026-05-04 12:24 -20.49097 57.33221 13792 ft 376 kts 255°
2026-05-04 12:24 -20.49706 57.30505 14228 ft 378 kts 255°
2026-05-04 12:25 -20.50312 57.27765 14638 ft 380 kts 255°
2026-05-04 12:25 -20.50915 57.25009 15072 ft 382 kts 255°
2026-05-04 12:25 -20.51515 57.22239 15499 ft 384 kts 255°
2026-05-04 12:25 -20.52115 57.19460 15911 ft 386 kts 255°
2026-05-04 12:26 -20.52717 57.16658 16315 ft 388 kts 255°
2026-05-04 12:26 -20.53321 57.13841 16727 ft 390 kts 255°
2026-05-04 12:26 -20.53927 57.11015 17133 ft 392 kts 255°
2026-05-04 12:26 -20.54528 57.08207 17553 ft 394 kts 255°
2026-05-04 12:27 -20.55137 57.05358 17960 ft 396 kts 255°
2026-05-04 12:27 -20.55752 57.02480 18309 ft 399 kts 255°
2026-05-04 12:27 -20.56371 56.99584 18648 ft 401 kts 255°
2026-05-04 12:27 -20.56990 56.96682 18990 ft 403 kts 255°
2026-05-04 12:28 -20.57613 56.93758 19324 ft 405 kts 255°
2026-05-04 12:28 -20.58238 56.90826 19645 ft 407 kts 255°
2026-05-04 12:28 -20.58866 56.87872 19975 ft 409 kts 255°
2026-05-04 12:28 -20.59488 56.84947 20294 ft 411 kts 255°
2026-05-04 12:29 -20.60121 56.81971 20618 ft 412 kts 255°
2026-05-04 12:29 -20.60756 56.78978 20945 ft 414 kts 255°
2026-05-04 12:29 -20.61394 56.75968 21259 ft 416 kts 255°
2026-05-04 12:29 -20.62034 56.72949 21564 ft 419 kts 255°
2026-05-04 12:30 -20.62677 56.69909 21865 ft 420 kts 255°
2026-05-04 12:30 -20.63322 56.66859 22175 ft 422 kts 255°
2026-05-04 12:30 -20.63970 56.63791 22461 ft 424 kts 255°
2026-05-04 12:30 -20.64612 56.60752 22746 ft 426 kts 255°
2026-05-04 12:31 -20.65265 56.57657 23034 ft 428 kts 255°
2026-05-04 12:31 -20.65920 56.54545 23287 ft 431 kts 255°
2026-05-04 12:31 -20.66579 56.51414 23562 ft 433 kts 255°
2026-05-04 12:31 -20.67241 56.48266 23805 ft 435 kts 255°
2026-05-04 12:32 -20.67904 56.45111 24049 ft 436 kts 256°
2026-05-04 12:32 -20.69234 56.38771 24545 ft 439 kts 256°
2026-05-04 12:32 -20.69901 56.35585 24800 ft 440 kts 256°
2026-05-04 12:33 -20.70568 56.32397 25018 ft 441 kts 256°
2026-05-04 12:33 -20.71230 56.29236 25217 ft 443 kts 256°
2026-05-04 12:33 -20.71903 56.26017 25420 ft 445 kts 256°
2026-05-04 12:33 -20.72602 56.22792 25641 ft 446 kts 255°
2026-05-04 12:34 -20.73323 56.19565 25859 ft 448 kts 255°
2026-05-04 12:34 -20.74054 56.16327 26068 ft 449 kts 255°
2026-05-04 12:34 -20.74786 56.13078 26274 ft 451 kts 255°
2026-05-04 12:34 -20.75519 56.09818 26494 ft 452 kts 255°
2026-05-04 12:35 -20.76250 56.06547 26688 ft 453 kts 255°
2026-05-04 12:35 -20.76980 56.03268 26890 ft 455 kts 255°
2026-05-04 12:35 -20.77712 55.99975 27092 ft 456 kts 255°
2026-05-04 12:35 -20.78433 55.96723 27273 ft 457 kts 255°
2026-05-04 12:36 -20.79167 55.93410 27466 ft 458 kts 256°
2026-05-04 12:36 -20.79901 55.90090 27673 ft 459 kts 256°
2026-05-04 12:36 -20.80637 55.86761 27841 ft 461 kts 256°
2026-05-04 12:36 -20.81374 55.83426 28011 ft 462 kts 256°
2026-05-04 12:37 -20.82113 55.80077 28219 ft 463 kts 256°
2026-05-04 12:37 -20.82850 55.76737 28451 ft 463 kts 256°
2026-05-04 12:37 -20.83588 55.73388 28701 ft 462 kts 256°
2026-05-04 12:37 -20.84323 55.70043 28992 ft 461 kts 256°
2026-05-04 12:38 -20.85046 55.66757 29250 ft 461 kts 256°
2026-05-04 12:38 -20.85777 55.63428 29516 ft 460 kts 256°
2026-05-04 12:38 -20.86507 55.60101 29819 ft 459 kts 256°
2026-05-04 12:38 -20.87234 55.56787 30074 ft 459 kts 256°
2026-05-04 12:39 -20.87948 55.53529 30313 ft 458 kts 256°
2026-05-04 12:39 -20.88673 55.50221 30557 ft 457 kts 256°
2026-05-04 12:39 -20.89457 55.46914 30690 ft 459 kts 255°
2026-05-04 12:39 -20.90289 55.43613 30898 ft 459 kts 254°
2026-05-04 12:40 -20.91133 55.40334 31198 ft 456 kts 254°
2026-05-04 12:40 -20.91973 55.37081 31526 ft 453 kts 254°
2026-05-04 12:40 -20.92805 55.33836 31821 ft 451 kts 254°
2026-05-04 12:40 -20.93629 55.30595 32062 ft 451 kts 255°
2026-05-04 12:41 -20.94446 55.27363 32296 ft 450 kts 255°
2026-05-04 12:41 -20.95247 55.24175 32564 ft 449 kts 255°
2026-05-04 12:41 -20.96054 55.20955 32854 ft 447 kts 255°
2026-05-04 12:41 -20.96855 55.17752 33082 ft 446 kts 255°
2026-05-04 12:42 -20.97658 55.14536 33243 ft 447 kts 255°
2026-05-04 12:42 -20.98460 55.11324 33456 ft 447 kts 255°
2026-05-04 12:42 -20.99260 55.08116 33723 ft 445 kts 255°
2026-05-04 12:42 -21.00057 55.04919 33996 ft 443 kts 255°
2026-05-04 12:43 -21.00850 55.01733 34191 ft 443 kts 255°
2026-05-04 12:43 -21.01631 54.98598 34398 ft 441 kts 255°
2026-05-04 12:43 -21.02417 54.95437 34664 ft 438 kts 255°
2026-05-04 12:43 -21.03196 54.92300 34920 ft 435 kts 255°
2026-05-04 12:44 -21.03973 54.89173 35125 ft 434 kts 255°
2026-05-04 12:44 -21.04744 54.86061 35323 ft 432 kts 255°
2026-05-04 12:44 -21.05514 54.82955 35529 ft 431 kts 255°
2026-05-04 12:44 -21.06281 54.79857 35713 ft 430 kts 255°
2026-05-04 12:45 -21.07045 54.76772 35885 ft 428 kts 255°
2026-05-04 12:45 -21.07549 54.74731 36002 ft 428 kts 255°
2026-05-04 12:45 -21.08310 54.71652 36049 ft 428 kts 255°
2026-05-04 12:46 -21.10076 54.64496 36059 ft 427 kts 255°
2026-05-04 12:46 -21.11333 54.59394 36061 ft 427 kts 255°
2026-05-04 12:47 -21.13099 54.52214 36066 ft 426 kts 255°
2026-05-04 12:47 -21.14350 54.47115 36061 ft 426 kts 255°
2026-05-04 12:48 -21.16097 54.39990 36061 ft 426 kts 255°
2026-05-04 12:48 -21.17599 54.33852 36064 ft 426 kts 255°
2026-05-04 12:49 -21.19100 54.27704 36066 ft 427 kts 255°
2026-05-04 12:49 -21.20348 54.22589 36065 ft 427 kts 255°
2026-05-04 12:50 -21.22092 54.15426 36067 ft 428 kts 255°
2026-05-04 12:50 -21.23339 54.10295 36069 ft 428 kts 255°
2026-05-04 12:51 -21.24838 54.04118 36066 ft 429 kts 255°
2026-05-04 12:51 -21.26337 53.97930 36070 ft 429 kts 255°
2026-05-04 12:52 -21.27833 53.91745 36071 ft 429 kts 255°
2026-05-04 12:52 -21.29331 53.85539 36071 ft 430 kts 255°
2026-05-04 12:53 -21.30817 53.79375 36076 ft 430 kts 255°
2026-05-04 12:53 -21.32311 53.73164 36070 ft 430 kts 255°
2026-05-04 12:54 -21.33803 53.66953 36072 ft 430 kts 255°
2026-05-04 12:54 -21.35531 53.59746 36073 ft 429 kts 255°
2026-05-04 12:55 -21.36764 53.54590 36072 ft 429 kts 255°
2026-05-04 12:55 -21.38243 53.48402 36069 ft 428 kts 255°
2026-05-04 12:56 -21.39719 53.42215 36077 ft 428 kts 255°
2026-05-04 12:56 -21.41194 53.36020 36074 ft 428 kts 255°
2026-05-04 12:57 -21.42666 53.29826 36076 ft 428 kts 255°
2026-05-04 12:57 -21.44126 53.23672 36072 ft 429 kts 255°
2026-05-04 12:58 -21.45597 53.17464 36076 ft 429 kts 255°
2026-05-04 12:58 -21.47064 53.11259 36074 ft 429 kts 255°
2026-05-04 12:59 -21.48531 53.05042 36073 ft 429 kts 255°
2026-05-04 12:59 -21.49986 52.98867 36075 ft 429 kts 255°
2026-05-04 13:00 -21.51448 52.92652 36079 ft 430 kts 255°
2026-05-04 13:00 -21.52910 52.86430 36083 ft 429 kts 255°
2026-05-04 13:01 -21.54369 52.80209 36084 ft 430 kts 255°
2026-05-04 13:01 -21.55816 52.74026 36083 ft 429 kts 255°
2026-05-04 13:02 -21.57268 52.67811 36079 ft 429 kts 255°
2026-05-04 13:02 -21.58719 52.61591 36082 ft 429 kts 255°
2026-05-04 13:03 -21.60165 52.55377 36081 ft 428 kts 255°
2026-05-04 13:03 -21.61607 52.49171 36086 ft 428 kts 255°
2026-05-04 13:04 -21.63037 52.43010 36076 ft 428 kts 256°
2026-05-04 13:04 -21.64472 52.36811 36085 ft 427 kts 256°
2026-05-04 13:05 -21.65903 52.30619 36090 ft 427 kts 256°
2026-05-04 13:05 -21.67332 52.24426 36089 ft 426 kts 255°
2026-05-04 13:06 -21.68747 52.18281 36086 ft 426 kts 255°
2026-05-04 13:06 -21.70169 52.12097 36084 ft 426 kts 255°
2026-05-04 13:07 -21.71588 52.05912 36090 ft 426 kts 256°
2026-05-04 13:07 -21.73002 51.99738 36094 ft 425 kts 255°
2026-05-04 13:08 -21.74407 51.93595 36085 ft 425 kts 255°
2026-05-04 13:08 -21.75817 51.87414 36083 ft 425 kts 256°
2026-05-04 13:09 -21.77225 51.81237 36091 ft 425 kts 256°
2026-05-04 13:09 -21.78629 51.75059 36090 ft 425 kts 256°
2026-05-04 13:10 -21.80023 51.68917 36086 ft 425 kts 256°
2026-05-04 13:10 -21.81424 51.62736 36087 ft 425 kts 256°
2026-05-04 13:11 -21.82821 51.56555 36083 ft 425 kts 256°
2026-05-04 13:11 -21.84216 51.50376 36089 ft 425 kts 256°
2026-05-04 13:12 -21.85607 51.44199 36090 ft 424 kts 256°
2026-05-04 13:12 -21.86985 51.38066 36087 ft 424 kts 256°
2026-05-04 13:13 -21.88370 51.31889 36093 ft 424 kts 256°
2026-05-04 13:13 -21.89752 51.25717 36091 ft 424 kts 256°
2026-05-04 13:14 -21.91129 51.19554 36089 ft 423 kts 256°
2026-05-04 13:14 -21.92494 51.13430 36089 ft 423 kts 256°
2026-05-04 13:15 -21.93865 51.07270 36089 ft 423 kts 256°
2026-05-04 13:15 -21.95234 51.01109 36090 ft 423 kts 256°
2026-05-04 13:16 -21.96600 50.94948 36094 ft 423 kts 256°
2026-05-04 13:16 -21.97954 50.88832 36093 ft 423 kts 256°
2026-05-04 13:17 -21.99316 50.82666 36094 ft 423 kts 256°
2026-05-04 13:17 -22.00675 50.76504 36088 ft 423 kts 256°
2026-05-04 13:18 -22.02032 50.70336 36095 ft 423 kts 256°
2026-05-04 13:18 -22.03379 50.64203 36081 ft 423 kts 256°
2026-05-04 13:19 -22.04732 50.58033 36095 ft 423 kts 256°
2026-05-04 13:19 -22.06082 50.51864 36094 ft 423 kts 256°
2026-05-04 13:20 -22.07428 50.45701 36094 ft 422 kts 256°
2026-05-04 13:20 -22.08770 50.39543 36095 ft 421 kts 256°
2026-05-04 13:21 -22.10098 50.33441 36090 ft 421 kts 256°
2026-05-04 13:21 -22.11430 50.27308 36098 ft 419 kts 256°
2026-05-04 13:22 -22.12756 50.21190 36097 ft 418 kts 256°
2026-05-04 13:22 -22.14076 50.15090 36101 ft 417 kts 256°
2026-05-04 13:23 -22.15390 50.09002 36103 ft 416 kts 256°
2026-05-04 13:23 -22.16690 50.02974 36094 ft 415 kts 256°
2026-05-04 13:24 -22.17992 49.96921 36088 ft 414 kts 256°
2026-05-04 13:24 -22.19290 49.90875 36106 ft 413 kts 256°
2026-05-04 13:25 -22.21222 49.81858 36101 ft 413 kts 256°
2026-05-04 13:25 -22.22511 49.75822 36102 ft 413 kts 256°
2026-05-04 13:26 -22.23802 49.69773 36109 ft 414 kts 256°
2026-05-04 13:26 -22.25091 49.63716 36107 ft 414 kts 256°
2026-05-04 13:27 -22.26379 49.57654 36102 ft 415 kts 256°
2026-05-04 13:27 -22.27658 49.51624 36093 ft 415 kts 256°
2026-05-04 13:28 -22.28942 49.45554 36105 ft 415 kts 256°
2026-05-04 13:28 -22.30225 49.39479 36112 ft 415 kts 256°
2026-05-04 13:29 -22.31506 49.33406 36110 ft 415 kts 256°
2026-05-04 13:29 -22.32775 49.27372 36104 ft 414 kts 256°
2026-05-04 13:30 -22.34049 49.21307 36097 ft 414 kts 256°
2026-05-04 13:30 -22.35320 49.15243 36102 ft 413 kts 256°
2026-05-04 13:31 -22.36587 49.09189 36102 ft 413 kts 256°
2026-05-04 13:31 -22.37850 49.03138 36107 ft 412 kts 256°
2026-05-04 13:32 -22.39100 48.97138 36100 ft 412 kts 256°
2026-05-04 13:32 -22.40356 48.91098 36119 ft 412 kts 256°
2026-05-04 13:33 -22.41610 48.85056 36104 ft 412 kts 256°
2026-05-04 13:33 -22.42861 48.79017 36104 ft 412 kts 256°
2026-05-04 13:34 -22.44112 48.72969 36113 ft 412 kts 256°
2026-05-04 13:34 -22.45350 48.66965 36115 ft 412 kts 256°
2026-05-04 13:35 -22.47220 48.57882 36106 ft 413 kts 257°
2026-05-04 13:36 -22.48463 48.51824 36117 ft 413 kts 257°
2026-05-04 13:36 -22.49697 48.45802 36108 ft 413 kts 257°
2026-05-04 13:37 -22.50938 48.39732 36108 ft 413 kts 257°
2026-05-04 13:37 -22.52178 48.33659 36108 ft 414 kts 257°
2026-05-04 13:38 -22.53415 48.27583 36116 ft 414 kts 257°
2026-05-04 13:38 -22.54650 48.21508 36099 ft 414 kts 257°
2026-05-04 13:39 -22.55875 48.15468 36106 ft 414 kts 257°
2026-05-04 13:39 -22.57105 48.09387 36113 ft 414 kts 257°
2026-05-04 13:40 -22.58334 48.03308 36114 ft 413 kts 257°
2026-05-04 13:40 -22.59559 47.97233 36119 ft 413 kts 257°
2026-05-04 13:41 -22.60783 47.91156 36106 ft 413 kts 257°
2026-05-04 13:41 -22.61997 47.85118 36122 ft 413 kts 257°
2026-05-04 13:42 -22.63823 47.76008 36106 ft 413 kts 257°
2026-05-04 13:42 -22.65037 47.69937 36113 ft 412 kts 257°
2026-05-04 13:43 -22.66247 47.63869 36119 ft 412 kts 257°
2026-05-04 13:43 -22.67447 47.57846 36107 ft 412 kts 257°
2026-05-04 13:44 -22.68652 47.51778 36121 ft 412 kts 257°
2026-05-04 13:44 -22.69855 47.45712 36123 ft 412 kts 257°
2026-05-04 13:45 -22.71056 47.39646 36124 ft 412 kts 257°
2026-05-04 13:45 -22.72244 47.33625 36118 ft 412 kts 257°
2026-05-04 13:46 -22.73440 47.27559 36127 ft 411 kts 257°
2026-05-04 13:46 -22.74631 47.21499 36123 ft 412 kts 257°
2026-05-04 13:47 -22.75822 47.15433 36141 ft 412 kts 257°
2026-05-04 13:47 -22.77010 47.09364 36134 ft 412 kts 257°
2026-05-04 13:48 -22.78189 47.03331 36128 ft 412 kts 257°
2026-05-04 13:48 -22.79374 46.97254 36134 ft 412 kts 257°
2026-05-04 13:49 -22.80556 46.91180 36129 ft 412 kts 257°
2026-05-04 13:49 -22.81736 46.85105 36137 ft 412 kts 257°
2026-05-04 13:50 -22.82903 46.79079 36127 ft 411 kts 257°
2026-05-04 13:50 -22.84077 46.73007 36126 ft 411 kts 257°
2026-05-04 13:51 -22.85248 46.66938 36130 ft 411 kts 257°
2026-05-04 13:51 -22.86417 46.60866 36153 ft 411 kts 257°
2026-05-04 13:52 -22.88163 46.51776 36133 ft 412 kts 257°
2026-05-04 13:53 -22.89327 46.45697 36121 ft 412 kts 257°
2026-05-04 13:53 -22.90487 46.39623 36118 ft 411 kts 257°
2026-05-04 13:54 -22.92220 46.30529 36108 ft 410 kts 258°
2026-05-04 13:55 -22.93939 46.21481 36108 ft 410 kts 258°
2026-05-04 13:55 -22.95660 46.12391 36106 ft 410 kts 258°
2026-05-04 13:56 -22.96805 46.06331 36103 ft 410 kts 258°
2026-05-04 13:57 -22.98511 45.97271 36079 ft 410 kts 258°
2026-05-04 13:58 -23.00786 45.85139 36060 ft 410 kts 258°
2026-05-04 13:58 -23.02489 45.76027 36036 ft 411 kts 258°
2026-05-04 13:59 -23.03621 45.69955 36054 ft 411 kts 258°
2026-05-04 14:00 -23.05309 45.60871 36026 ft 411 kts 258°
2026-05-04 14:00 -23.07000 45.51742 36023 ft 411 kts 258°
2026-05-04 14:01 -23.08125 45.45650 36018 ft 412 kts 258°
2026-05-04 14:02 -23.09812 45.36489 36011 ft 413 kts 258°
2026-05-04 14:02 -23.10927 45.30421 36010 ft 413 kts 258°
2026-05-04 14:03 -23.12048 45.24302 36005 ft 413 kts 258°
2026-05-04 14:03 -23.13166 45.18185 35996 ft 413 kts 259°
2026-05-04 14:04 -23.14832 45.09046 35998 ft 413 kts 259°
2026-05-04 14:04 -23.15945 45.02926 36002 ft 413 kts 259°
2026-05-04 14:05 -23.17608 44.93749 36002 ft 413 kts 259°
2026-05-04 14:06 -23.18715 44.87622 35994 ft 413 kts 259°
2026-05-04 14:06 -23.19812 44.81544 35990 ft 412 kts 259°
2026-05-04 14:07 -23.20912 44.75429 35996 ft 412 kts 259°
2026-05-04 14:07 -23.22010 44.69316 35990 ft 412 kts 259°
2026-05-04 14:08 -23.23104 44.63206 35983 ft 412 kts 259°
2026-05-04 14:08 -23.24195 44.57097 35990 ft 411 kts 259°
2026-05-04 14:09 -23.25820 44.47980 35982 ft 411 kts 259°
2026-05-04 14:10 -23.27445 44.38822 35980 ft 411 kts 259°
2026-05-04 14:10 -23.28527 44.32712 35981 ft 412 kts 259°
2026-05-04 14:11 -23.29607 44.26596 35988 ft 411 kts 259°
2026-05-04 14:11 -23.31215 44.17464 35981 ft 412 kts 259°
2026-05-04 14:12 -23.32290 44.11339 35977 ft 412 kts 259°
2026-05-04 14:13 -23.33900 44.02141 35975 ft 413 kts 259°
2026-05-04 14:13 -23.34972 43.96001 35972 ft 413 kts 259°
2026-05-04 14:14 -23.36035 43.89891 35965 ft 414 kts 259°
2026-05-04 14:14 -23.37637 43.80661 35966 ft 414 kts 259°
2026-05-04 14:15 -23.40015 43.68402 35972 ft 414 kts 255°
2026-05-04 14:16 -23.42376 43.59394 35941 ft 414 kts 255°
2026-05-04 14:17 -23.44732 43.50341 35960 ft 414 kts 255°
2026-05-04 14:18 -23.47060 43.41283 35984 ft 414 kts 255°
2026-05-04 14:19 -23.50139 43.29242 36003 ft 414 kts 256°
2026-05-04 14:19 -23.51679 43.23203 36002 ft 414 kts 256°
2026-05-04 14:20 -23.53217 43.17162 35996 ft 414 kts 256°
2026-05-04 14:20 -23.54744 43.11156 36005 ft 414 kts 256°
2026-05-04 14:21 -23.57045 43.02087 36015 ft 414 kts 256°
2026-05-04 14:21 -23.58577 42.96032 36015 ft 414 kts 256°
2026-05-04 14:22 -23.60107 42.89976 36003 ft 414 kts 256°
2026-05-04 14:22 -23.61625 42.83956 36010 ft 414 kts 256°
2026-05-04 14:23 -23.63913 42.74865 36012 ft 415 kts 256°
2026-05-04 14:24 -23.65437 42.68797 36015 ft 415 kts 256°
2026-05-04 14:24 -23.66957 42.62732 36024 ft 415 kts 256°
2026-05-04 14:25 -23.68468 42.56694 36026 ft 415 kts 256°
2026-05-04 14:25 -23.70742 42.47584 36029 ft 415 kts 256°
2026-05-04 14:26 -23.72255 42.41510 36028 ft 415 kts 256°
2026-05-04 14:26 -23.73766 42.35430 36030 ft 415 kts 256°
2026-05-04 14:27 -23.75276 42.29349 36032 ft 415 kts 256°
2026-05-04 14:27 -23.76771 42.23314 36034 ft 415 kts 256°
2026-05-04 14:28 -23.78274 42.17237 36043 ft 414 kts 256°
2026-05-04 14:28 -23.79773 42.11163 36033 ft 414 kts 256°
2026-05-04 14:29 -23.82752 41.99062 36040 ft 414 kts 256°
2026-05-04 14:30 -23.84242 41.92992 36043 ft 413 kts 256°
2026-05-04 14:31 -23.86469 41.83898 36044 ft 413 kts 256°
2026-05-04 14:32 -23.89419 41.71815 36049 ft 413 kts 256°
2026-05-04 14:32 -23.90894 41.65759 36049 ft 413 kts 256°
2026-05-04 14:33 -23.92367 41.59697 36045 ft 413 kts 256°
2026-05-04 14:33 -23.93837 41.53637 36050 ft 413 kts 256°
2026-05-04 14:34 -23.95297 41.47610 36053 ft 413 kts 256°
2026-05-04 14:34 -23.96762 41.41546 36055 ft 413 kts 256°
2026-05-04 14:35 -23.98228 41.35473 36057 ft 413 kts 256°
2026-05-04 14:35 -23.99690 41.29398 36054 ft 413 kts 256°
2026-05-04 14:36 -24.01153 41.23313 36059 ft 414 kts 256°
2026-05-04 14:36 -24.02604 41.17265 36064 ft 414 kts 256°
2026-05-04 14:37 -24.04062 41.11175 36062 ft 414 kts 256°
2026-05-04 14:37 -24.05519 41.05081 36056 ft 414 kts 256°
2026-05-04 14:38 -24.06973 40.98983 36062 ft 414 kts 256°
2026-05-04 14:38 -24.08417 40.92921 36058 ft 414 kts 256°
2026-05-04 14:39 -24.09867 40.86819 36058 ft 414 kts 256°
2026-05-04 14:39 -24.11313 40.80721 36063 ft 414 kts 256°
2026-05-04 14:40 -24.13480 40.71565 36064 ft 414 kts 256°
2026-05-04 14:40 -24.14920 40.65466 36062 ft 414 kts 256°
2026-05-04 14:41 -24.16349 40.59402 36062 ft 414 kts 256°
2026-05-04 14:42 -24.19214 40.47204 36068 ft 414 kts 256°
2026-05-04 14:42 -24.20645 40.41096 36066 ft 414 kts 256°
2026-05-04 14:43 -24.22062 40.35037 36068 ft 414 kts 256°
2026-05-04 14:43 -24.23488 40.28928 36068 ft 414 kts 256°
2026-05-04 14:44 -24.24910 40.22820 36072 ft 414 kts 256°
2026-05-04 14:44 -24.26332 40.16704 36073 ft 414 kts 256°
2026-05-04 14:45 -24.27742 40.10624 36071 ft 415 kts 256°
2026-05-04 14:45 -24.29161 40.04499 36071 ft 415 kts 256°
2026-05-04 14:46 -24.30502 39.98344 36069 ft 415 kts 259°
2026-05-04 14:46 -24.31469 39.92103 36077 ft 416 kts 261°
2026-05-04 14:47 -24.32379 39.85843 36071 ft 416 kts 261°
2026-05-04 14:47 -24.33296 39.79618 36074 ft 417 kts 261°
2026-05-04 14:48 -24.34234 39.73343 36070 ft 417 kts 261°
2026-05-04 14:48 -24.35176 39.67062 36072 ft 418 kts 261°
2026-05-04 14:49 -24.36118 39.60767 36074 ft 418 kts 261°
2026-05-04 14:49 -24.37059 39.54465 36069 ft 419 kts 261°
2026-05-04 14:50 -24.37992 39.48198 36076 ft 419 kts 261°
2026-05-04 14:50 -24.38929 39.41884 36074 ft 420 kts 261°
2026-05-04 14:51 -24.39864 39.35565 36067 ft 420 kts 261°
2026-05-04 14:51 -24.40797 39.29240 36074 ft 420 kts 261°
2026-05-04 14:52 -24.41721 39.22963 36078 ft 420 kts 261°
2026-05-04 14:52 -24.42647 39.16643 36076 ft 419 kts 261°
2026-05-04 14:53 -24.43571 39.10324 36073 ft 419 kts 261°
2026-05-04 14:53 -24.44492 39.04008 36078 ft 419 kts 261°
2026-05-04 14:54 -24.45410 38.97693 36076 ft 419 kts 261°
2026-05-04 14:54 -24.46319 38.91417 36076 ft 419 kts 261°
2026-05-04 14:55 -24.47233 38.85094 36075 ft 419 kts 261°
2026-05-04 14:55 -24.48143 38.78773 36078 ft 420 kts 261°
2026-05-04 14:56 -24.49053 38.72441 36076 ft 420 kts 261°
2026-05-04 14:56 -24.49953 38.66149 36076 ft 420 kts 261°
2026-05-04 14:57 -24.50859 38.59805 36075 ft 421 kts 261°
2026-05-04 14:57 -24.51761 38.53460 36076 ft 421 kts 261°
2026-05-04 14:58 -24.52663 38.47105 36077 ft 421 kts 261°
2026-05-04 14:58 -24.53410 38.41825 36076 ft 421 kts 261°
2026-05-04 14:59 -24.54453 38.34427 36076 ft 422 kts 261°
2026-05-04 15:00 -24.55794 38.24875 36075 ft 422 kts 261°
2026-05-04 15:00 -24.56683 38.18515 36081 ft 422 kts 261°
2026-05-04 15:01 -24.58010 38.08994 36077 ft 422 kts 261°
2026-05-04 15:01 -24.58895 38.02616 36076 ft 422 kts 261°
2026-05-04 15:02 -24.59777 37.96239 36077 ft 422 kts 261°
2026-05-04 15:02 -24.60657 37.89857 36075 ft 422 kts 261°
2026-05-04 15:03 -24.61528 37.83519 36077 ft 423 kts 261°
2026-05-04 15:03 -24.62403 37.77135 36074 ft 422 kts 261°
2026-05-04 15:04 -24.63275 37.70750 36075 ft 422 kts 261°
2026-05-04 15:04 -24.64144 37.64366 36077 ft 422 kts 261°
2026-05-04 15:05 -24.65005 37.58021 36074 ft 422 kts 261°
2026-05-04 15:05 -24.65869 37.51632 36073 ft 423 kts 261°
2026-05-04 15:06 -24.66731 37.45241 36077 ft 423 kts 261°
2026-05-04 15:07 -24.68018 37.35651 36073 ft 423 kts 261°
2026-05-04 15:07 -24.68873 37.29257 36073 ft 423 kts 261°
2026-05-04 15:08 -24.69721 37.22898 36074 ft 423 kts 261°